Location: Autingues
(50.8400°N, 1.9737°E)
Time: 08:16:18
(UTC+00:00)

PSLV R/B - Pass Details

Date: 15 May 2026
Orbit: 585 x 678 km, 97.9° (Epoch: 6 June)

Event Time Altitude Azimuth Distance (km) Brightness Sun altitude
Rises 23:09:55 0° 17° (NNE) 2,874 8.1 -19.6°
Reaches altitude 10° 23:12:07 10° 21° (NNE) 1,978 7.0 -19.7°
Maximum altitude 23:16:22 58° 101° (E) 730 3.7 -19.8°
Enters shadow 23:17:19 46° 149° (SSE) 841 3.8 -19.8°
